RH
2 2 2 2 11 31 29 39 49 52 18 4 3 4 15 18 24 48 50 46 29 30 50 71 68 62 65 68 72 83 66 53 60 66 73 63 53 52 50 46 33 19 19 57 54 47 40 17 16
3 3 2 4 24 24 36 41 54 26 5 3 3 4 15 25 19 12 7 9 9 9 20 35 45 65 62 67 71 80 80 64 61 64 71 73 66 53 52 48 45 27 14 27 56 28 22 19 14
4 3 3 7 22 27 40 41 44 8 3 3 3 3 5 5 7 4 4 4 4 3 3 13 36 32 53 57 67 74 81 79 68 64 65 71 73 62 55 52 48 38 20 43 8 16 23 18 14
4 4 4 28 29 29 46 11 5 17 7 4 3 3 10 8 7 6 3 3 2 3 2 3 6 36 32 43 56 71 83 83 81 70 66 67 72 69 60 54 49 44 27 6 5 6 14 18 14
5 5 6 23 25 11 6 4 3 3 5 4 3 5 5 3 3 3 3 2 2 2 2 2 2 4 34 44 49 62 75 86 86 84 72 64 69 70 66 57 53 45 36 8 5 5 6 11 12
6 6 20 21 27 7 5 4 4 4 4 4 4 3 3 5 4 4 3 3 2 2 2 2 2 2 3 44 53 60 71 84 89 88 82 66 64 73 72 67 55 51 42 17 4 5 6 7 11
7 8 23 18 20 7 6 5 5 5 4 5 4 4 7 6 4 4 4 3 3 3 2 2 2 2 1 2 52 63 71 88 98 91 88 73 71 66 72 68 62 55 45 34 6 4 5 6 9
8 8 8 7 11 12 7 7 7 6 5 6 5 4 5 4 4 4 4 3 3 3 2 2 2 1 1 1 8 66 71 72 99 100 97 82 85 68 76 71 70 56 47 42 19 4 5 6 7
10 8 8 8 8 9 9 9 8 7 7 7 6 5 5 5 5 5 5 4 3 3 2 2 2 1 1 1 1 9 59 72 84 100 100 89 96 71 66 71 77 68 54 46 39 10 4 5 6
11 10 10 10 10 10 10 10 10 10 9 8 8 7 7 7 6 6 5 4 4 3 2 2 2 2 2 2 1 1 17 62 76 94 100 96 95 83 70 64 79 79 61 50 45 25 5 5 6
12 11 12 12 12 12 11 11 12 11 10 9 9 8 8 8 7 7 6 5 4 3 2 2 2 2 3 3 2 2 2 46 71 81 96 90 93 99 90 79 84 88 71 55 43 31 14 4 5
14 13 15 14 14 13 13 13 13 12 12 11 11 10 10 9 8 7 6 5 4 4 2 2 2 3 4 4 2 2 2 15 67 72 77 98 100 100 95 97 80 88 81 62 49 38 28 7 5
15 16 17 16 15 15 15 14 14 13 13 13 12 12 11 10 9 8 6 6 5 4 2 2 3 4 4 5 5 3 2 2 29 72 74 98 100 100 87 96 97 99 84 73 59 51 36 18 6
16 18 18 18 18 17 17 16 14 15 16 15 15 14 12 11 10 8 7 6 5 4 2 2 3 5 6 6 6 5 3 3 4 47 71 81 96 98 100 100 100 100 98 88 68 62 56 29 12
20 19 20 19 20 20 19 16 17 17 17 18 17 15 13 12 10 9 7 7 5 4 3 2 4 6 6 7 8 7 6 4 3 8 35 75 98 100 99 100 100 100 98 96 76 72 73 50 24
22 21 24 26 24 22 23 19 20 19 20 20 20 18 15 12 10 10 8 7 6 4 3 2 5 6 7 9 6 5 6 5 4 3 10 33 96 99 99 100 100 100 100 100 94 71 75 63 44
30 29 26 27 28 26 26 24 23 25 24 22 21 19 15 14 10 11 8 8 6 5 4 3 6 8 10 6 5 6 7 7 5 4 4 9 87 100 100 100 99 98 100 99 100 83 75 70 66
35 24 26 25 27 28 27 25 26 29 28 26 24 17 14 13 12 13 9 9 8 6 5 3 3 8 8 6 6 7 10 10 8 6 4 6 26 97 100 100 98 100 99 100 100 99 83 78 78
32 30 27 26 31 32 27 28 28 28 26 24 17 15 14 13 17 13 10 10 10 8 6 5 3 4 7 9 7 8 10 11 9 7 5 6 8 60 97 100 98 100 100 100 100 99 92 84 92
34 37 33 35 33 32 30 29 27 22 16 17 17 16 13 17 18 16 12 12 11 10 8 7 6 3 2 6 10 7 7 8 9 8 8 6 6 12 80 99 100 100 100 100 100 100 100 97 92
38 40 38 37 35 32 36 32 28 26 25 20 19 18 14 18 19 19 14 14 13 12 12 9 9 8 3 1 5 9 7 6 7 7 8 8 7 6 20 78 100 99 95 99 100 100 100 99 99
44 43 41 39 33 31 38 47 28 23 22 20 21 19 17 19 21 21 17 20 20 16 14 12 11 11 9 3 2 2 8 9 9 8 8 8 9 7 6 14 93 98 100 99 100 100 100 100 99
43 45 41 39 32 33 40 48 26 26 24 23 25 20 20 20 23 23 20 24 24 21 18 15 14 13 13 9 4 2 1 7 9 9 7 8 9 9 6 5 21 99 99 99 100 100 100 100 100
48 49 43 38 52 77 41 42 33 28 29 31 30 22 25 23 26 26 22 24 27 26 22 19 16 15 15 13 10 4 1 1 6 10 10 8 10 10 7 4 6 38 99 100 99 100 100 100 100
50 46 60 99 90 82 56 57 41 34 32 30 25 25 26 26 29 30 27 27 29 29 27 24 19 17 17 16 13 10 4 2 1 4 11 10 10 11 10 7 4 13 66 98 100 100 99 100 100
44 43 62 88 86 72 55 49 35 32 32 31 27 27 27 29 31 35 34 30 30 29 28 27 23 20 19 18 16 13 10 4 2 1 3 10 12 9 11 11 7 4 6 30 68 97 99 98 100
58 49 45 51 51 62 46 44 41 37 33 34 32 28 31 35 38 40 38 33 30 29 27 26 25 23 21 20 19 16 14 9 4 2 1 3 10 13 12 12 11 8 4 8 26 73 98 100 99
55 58 49 46 79 90 59 50 48 42 41 33 31 36 35 35 41 44 41 36 33 31 29 28 27 26 25 23 21 20 16 14 10 5 2 2 4 11 14 13 13 10 7 5 21 41 53 98 100
52 55 56 57 56 89 89 56 43 40 40 37 38 38 37 40 45 48 46 38 36 33 32 30 29 28 28 27 25 22 18 16 14 9 4 1 2 6 11 14 14 14 10 8 6 32 53 82 99
66 60 52 51 65 58 70 60 43 43 42 40 38 39 44 47 53 54 48 39 35 34 33 32 32 30 30 31 29 26 22 19 16 11 7 3 1 3 8 12 14 14 16 11 8 15 76 80 81
Wind_Speed
3 3 4 6 9 10 8 5 5 2 1 2 2 2 2 2 2 4 2 4 7 8 15 14 14 14 15 18 17 14 13 12 10 10 7 6 6 5 4 5 6 7 6 6 7 11 11 9 9
3 3 5 8 10 10 8 7 8 8 2 4 2 3 4 5 8 10 14 14 17 16 12 15 19 18 16 19 20 17 17 17 14 12 12 9 8 7 6 4 3 4 2 5 5 6 10 9 7
3 3 3 8 6 11 6 9 8 7 5 5 6 7 7 9 11 14 16 17 17 17 17 17 18 23 23 20 23 22 20 20 19 17 15 14 11 10 8 6 4 2 2 4 4 4 6 8 7
3 5 8 10 3 8 6 7 5 4 10 6 6 11 9 11 14 18 17 19 21 22 21 20 21 23 26 27 25 27 26 24 23 21 19 18 15 13 11 10 7 5 6 5 5 5 5 7 7
5 5 8 6 4 4 5 4 6 7 10 10 7 12 14 13 18 22 18 20 22 24 25 24 24 25 30 29 29 30 31 29 28 26 24 22 20 17 15 13 11 9 9 8 7 7 7 6 6
3 6 10 4 6 2 4 5 8 9 10 14 11 10 15 19 19 17 16 17 25 27 26 23 27 29 31 37 35 33 35 34 32 31 29 26 24 20 19 17 15 13 12 10 9 9 9 9 7
2 7 11 8 8 4 4 6 9 9 12 14 10 13 15 23 21 22 23 23 25 28 30 29 30 32 36 38 43 40 36 39 36 35 34 30 27 24 23 20 18 17 16 13 12 12 11 11 10
2 3 7 7 7 8 4 7 9 9 12 13 11 10 16 23 26 25 27 28 29 31 32 33 35 35 36 42 46 47 43 41 38 40 37 34 29 29 27 22 22 21 20 17 15 14 13 13 13
0 3 6 6 7 7 6 9 8 10 12 14 12 13 18 19 21 25 26 28 29 32 37 40 41 39 38 39 45 52 50 45 46 41 39 39 32 36 34 29 26 25 24 21 18 17 16 15 15
1 3 5 5 5 7 7 9 11 10 12 13 13 14 17 18 20 21 26 29 32 32 35 40 39 38 35 35 40 49 53 49 46 47 37 37 47 41 38 33 30 28 27 26 23 21 18 19 17
3 3 4 6 6 9 8 9 12 13 12 14 14 15 19 22 23 24 28 31 34 36 38 40 40 37 31 29 33 41 51 51 46 51 41 48 52 39 39 39 34 32 32 30 27 24 21 21 20
4 4 7 7 8 9 9 12 12 12 13 15 16 16 20 22 21 23 28 30 33 37 36 38 37 33 28 26 27 31 40 50 51 50 49 32 49 46 39 43 35 36 35 33 30 27 24 23 22
5 6 8 9 8 10 12 13 16 13 10 15 17 20 22 22 23 23 28 30 32 35 36 35 31 29 27 24 24 26 29 41 49 51 45 40 27 39 51 44 42 35 37 37 34 30 27 27 24
5 9 9 8 12 11 13 16 16 12 14 17 21 22 23 22 24 23 25 28 31 33 35 33 31 26 26 26 25 26 26 27 41 51 47 52 39 39 46 46 53 41 43 40 39 33 30 30 26
9 11 11 9 11 15 15 12 16 17 18 20 22 23 24 21 23 23 24 26 28 31 33 32 28 26 27 26 26 28 27 24 29 43 51 49 47 29 43 44 50 42 47 43 44 39 35 34 29
9 8 8 11 16 15 17 17 22 18 23 25 25 24 25 22 22 24 24 25 27 28 30 30 26 25 26 29 28 28 28 26 24 30 45 51 54 38 32 36 26 50 44 44 44 42 39 35 31
4 7 11 16 18 21 18 22 21 28 27 29 30 26 24 22 21 25 24 24 25 26 28 29 27 26 28 26 25 25 26 25 24 27 34 44 56 50 32 33 26 45 43 44 44 46 41 37 34
5 9 12 13 21 28 26 27 23 25 31 33 31 21 19 20 21 24 22 23 24 26 27 28 28 25 26 26 24 24 22 22 24 25 27 38 45 58 44 35 40 24 47 51 50 47 45 40 36
11 13 16 16 22 26 26 31 28 26 31 27 19 15 16 18 21 22 22 23 23 25 26 26 27 26 24 27 24 21 20 19 21 23 25 29 28 55 52 35 41 24 17 43 52 48 49 45 40
12 16 16 17 19 26 29 33 32 16 8 13 15 13 14 18 20 20 21 22 23 24 25 26 28 27 24 26 26 23 19 19 19 21 23 26 25 32 62 53 37 45 21 14 44 48 48 48 45
15 17 18 19 24 25 28 32 27 23 18 17 16 14 15 17 21 20 19 21 24 24 25 26 27 28 27 23 27 26 26 23 22 22 24 25 25 24 40 58 44 43 39 13 36 45 49 54 51
19 16 16 18 20 9 23 10 32 16 16 13 15 15 15 16 21 21 19 22 25 26 26 25 26 28 28 25 24 25 27 27 26 25 24 26 27 26 27 40 56 50 39 26 18 36 45 50 56
16 17 17 18 20 22 24 9 5 13 16 15 16 16 17 16 18 22 21 23 25 27 27 28 28 28 28 28 24 25 23 27 28 27 27 27 29 27 25 29 46 55 48 34 26 27 30 42 52
17 17 18 15 10 3 10 11 8 12 21 21 17 14 17 18 18 22 24 27 29 28 28 29 30 29 30 30 28 24 26 23 27 29 29 28 28 27 27 26 36 60 62 53 35 30 29 36 47
19 12 4 2 1 4 9 11 23 27 23 24 19 18 16 17 20 22 27 30 32 31 29 30 30 31 30 31 30 28 26 25 23 28 29 28 28 28 28 29 29 46 73 76 55 50 39 23 41
8 12 5 6 3 1 8 12 10 13 20 24 16 18 17 17 24 28 28 31 33 34 31 31 30 31 32 32 31 31 29 26 25 23 28 31 30 30 30 28 29 33 39 60 76 70 48 34 33
11 16 14 9 11 4 12 17 29 24 16 22 21 17 19 19 26 31 31 31 33 35 34 32 32 31 32 32 32 31 31 29 27 26 26 30 32 32 33 32 29 31 35 36 47 75 50 42 38
22 14 7 9 2 6 9 20 23 25 17 14 16 17 20 24 33 30 31 33 34 36 35 34 34 33 33 33 34 34 33 32 30 29 29 28 32 34 34 35 35 33 35 38 39 52 61 57 53
25 27 19 13 10 5 4 8 9 17 15 16 22 26 24 30 35 36 34 33 35 36 37 35 36 35 34 35 35 35 35 34 33 30 31 30 31 34 36 36 36 36 38 40 42 45 53 54 62
26 30 29 16 9 13 5 27 27 26 24 24 23 30 36 39 42 39 35 34 35 37 37 36 37 36 36 37 37 36 36 36 35 34 32 32 33 34 35 38 37 37 40 42 45 45 54 52 69
Wind_Direction
79 102 118 120 86 90 84 126 101 286 59 54 8 354 327 196 232 216 223 256 271 274 240 241 244 247 245 241 239 237 223 218 207 198 208 235 259 275 301 344 6 15 47 110 138 125 117 105 103
77 101 126 110 103 138 113 90 205 232 267 268 292 291 264 268 265 255 266 266 271 270 266 255 246 247 248 249 240 234 233 226 223 210 208 217 232 250 269 292 323 2 44 136 176 143 127 119 106
108 116 136 110 80 102 125 168 234 285 270 274 297 289 277 285 276 283 282 286 281 281 275 259 258 245 247 250 246 236 231 232 226 223 212 212 218 232 244 259 266 285 278 169 230 216 158 140 132
107 124 104 74 162 135 176 203 236 265 294 282 303 290 287 285 285 278 281 288 290 289 283 274 258 257 247 247 247 242 231 231 231 225 224 215 213 221 236 240 245 250 261 238 221 226 216 174 159
114 114 103 128 184 191 232 258 255 263 271 286 301 288 296 285 281 278 289 293 291 286 286 289 283 265 254 249 241 244 235 230 233 229 225 221 212 216 228 235 233 240 249 245 228 220 219 212 188
119 110 111 147 218 258 253 263 266 263 276 285 298 297 280 280 280 298 313 299 293 294 289 294 292 282 263 252 245 237 240 233 230 231 226 221 218 215 223 229 233 230 241 243 230 226 219 214 210
116 143 159 163 240 270 263 258 259 272 273 282 302 297 285 281 300 312 305 303 301 300 305 306 294 285 273 257 245 243 234 235 234 228 228 221 221 219 221 224 229 232 235 234 233 226 222 216 216
122 154 166 194 228 255 269 273 276 275 280 287 292 279 278 291 306 305 307 308 308 311 313 311 303 296 285 266 245 240 240 235 231 231 230 220 228 221 223 221 227 228 232 233 230 227 223 224 217
77 177 190 205 231 259 275 276 271 280 279 286 289 282 282 293 298 303 306 309 312 317 317 312 308 306 295 273 251 239 240 234 230 231 231 220 224 221 219 213 226 226 229 230 231 226 222 223 224
255 217 219 245 275 278 279 282 290 289 283 283 288 288 292 301 303 310 311 316 318 318 311 311 312 309 300 286 261 242 238 241 228 231 236 225 226 214 217 213 222 226 227 229 229 223 222 221 222
275 255 272 277 287 280 283 289 294 299 296 296 302 308 309 312 316 319 320 321 320 317 319 319 318 314 307 297 280 256 242 239 238 228 237 223 226 218 209 214 219 226 225 226 225 227 220 222 220
271 274 300 297 300 292 296 297 299 300 296 303 307 309 308 311 316 320 319 319 320 318 321 318 314 313 310 306 292 275 261 245 241 231 237 229 215 224 215 216 213 225 227 227 225 225 228 219 222
269 295 305 302 300 303 307 306 303 304 303 308 311 313 312 320 319 323 319 321 318 318 318 315 310 307 306 306 303 289 278 261 247 241 232 231 243 219 211 212 216 223 225 229 226 224 225 229 218
280 302 306 300 308 309 309 310 309 309 317 315 315 317 315 320 315 320 320 317 316 318 315 317 312 303 301 303 303 297 287 280 262 247 243 234 226 224 201 209 210 214 219 228 226 223 225 228 225
301 302 303 299 305 310 312 309 317 317 315 316 314 314 313 317 312 317 317 317 316 314 317 315 312 298 298 297 301 300 292 286 274 260 254 243 233 234 212 212 193 208 223 218 224 222 223 225 227
300 295 307 309 310 310 315 314 318 313 310 311 312 311 309 312 313 316 314 313 311 315 316 312 308 301 296 296 296 294 290 283 279 269 263 259 234 224 225 210 206 200 210 219 230 221 224 224 227
303 298 304 307 313 309 311 308 315 316 310 302 307 309 306 308 309 313 311 313 314 314 314 312 307 299 296 295 299 300 290 282 275 272 266 270 241 230 222 223 209 200 190 215 223 227 222 222 225
239 285 290 306 308 307 308 312 312 314 301 297 299 299 296 302 308 310 308 312 314 315 316 315 306 296 293 293 298 300 292 282 275 274 270 272 259 241 226 224 230 224 190 203 215 224 225 224 224
283 292 292 296 292 298 305 308 319 305 288 287 285 289 292 301 310 307 306 310 315 315 316 316 313 305 295 288 291 294 291 281 279 279 274 276 272 255 238 225 228 211 193 191 212 209 225 225 222
293 302 298 308 300 305 305 307 320 317 291 284 288 283 278 303 308 306 305 311 314 316 315 317 318 315 307 293 288 283 285 280 275 281 282 279 278 256 253 236 227 216 205 192 204 205 221 226 224
293 297 294 296 303 308 305 313 320 313 293 271 288 275 267 298 305 309 305 313 316 316 317 317 319 320 318 312 293 281 277 278 276 277 279 278 279 273 255 254 228 214 210 224 197 207 202 228 227
293 295 297 299 306 304 301 289 307 296 302 254 288 272 275 289 307 310 306 317 317 315 317 318 317 319 321 319 311 294 277 272 274 275 275 279 281 275 267 257 240 225 221 217 203 204 207 214 229
278 289 292 296 293 293 299 239 278 282 298 278 282 267 286 285 304 309 305 318 318 312 313 314 318 319 319 321 320 311 294 279 271 269 270 274 277 275 268 261 251 224 215 225 218 206 211 212 227
276 284 292 290 283 270 260 228 257 272 305 293 291 264 290 294 305 316 309 311 318 316 312 314 315 318 319 320 322 320 311 293 275 271 270 270 274 271 273 267 260 249 231 233 237 235 225 216 222
266 260 296 323 256 232 226 227 256 283 287 287 281 271 281 295 306 318 309 306 311 317 314 312 311 314 316 316 318 321 317 310 295 276 270 267 268 269 271 269 257 253 249 250 244 248 238 233 225
230 211 217 237 243 257 245 242 266 276 288 282 280 277 282 295 306 312 308 305 307 313 315 313 309 310 312 313 314 316 316 313 307 293 275 268 265 265 266 268 262 249 251 250 254 250 235 223 228
234 223 242 259 283 284 241 262 275 283 278 268 272 269 288 306 312 310 306 303 303 308 313 312 311 308 307 310 312 311 312 313 308 302 289 274 266 263 263 262 260 254 245 240 239 250 239 223 227
235 230 205 207 274 259 243 251 259 280 260 251 259 285 282 291 311 306 306 302 301 303 308 308 308 307 307 307 308 308 309 309 309 304 297 285 271 264 261 261 258 256 250 242 228 233 244 244 243
240 229 221 228 222 214 298 249 256 287 277 263 269 291 293 297 307 304 301 296 297 300 304 305 306 304 303 304 304 305 306 306 306 304 299 292 280 270 263 260 259 257 253 248 235 225 224 236 247
249 245 241 222 216 219 268 263 269 274 270 280 283 289 298 301 303 298 295 295 296 297 300 301 303 303 303 305 303 303 303 303 303 303 299 294 288 276 267 262 258 260 250 247 244 228 222 217 241